Location: Unspecified
(35.6961°N, 0.0000°E)
Time: 15:19:50
(UTC+00:00)

NOAA 18 - Visible Passes

Search period start: 16 June 2019 00:00
Search period end: 26 June 2019 00:00
Orbit: 840 x 861 km, 99.1° (Epoch: 15 June)

Date Brightness Start Highest point End Pass type
(mag) Time Alt. Az. Time Alt. Az. Time Alt. Az.
16 Jun 6.5 20:50:32 10° SSW 20:55:36 36° W 21:00:42 10° NNW visible
17 Jun 6.1 20:38:31 10° S 20:43:51 47° W 20:49:11 10° NNW visible
18 Jun 5.7 20:26:37 10° S 20:32:05 61° WSW 20:37:35 10° NNW visible
19 Jun 5.4 20:14:48 10° S 20:20:21 79° WSW 20:25:55 10° NNW visible
20 Jun 5.2 20:03:06 10° SSE 20:08:38 81° ENE 20:14:11 10° N visible
20 Jun 7.9 21:48:37 10° WSW 21:49:49 11° W 21:51:02 10° WNW visible
21 Jun 5.4 19:51:29 10° SSE 19:56:57 63° ENE 20:02:24 10° N visible
21 Jun 7.6 21:35:01 10° SW 21:37:58 15° W 21:40:56 10° WNW visible
22 Jun 5.6 19:39:58 10° SE 19:45:16 49° ENE 19:50:34 10° N visible
22 Jun 7.4 21:22:16 10° SW 21:26:07 19° W 21:30:00 10° NW visible
23 Jun 7.1 21:09:51 10° SSW 21:14:18 25° W 21:18:47 10° NW visible
24 Jun 6.7 20:57:36 10° SSW 21:02:30 32° W 21:07:24 10° NW visible
25 Jun 6.3 20:45:32 10° S 20:50:43 41° W 20:55:55 10° NNW visible
